Bartlesville, OK

9:20 PM CST on February 19, 2017 (GMT -0600)
Bartlesville Municipal

Weather History for KBVO - January, 2014

Change the Weather History Date:

Friday, January 3, 2014

  Actual Average Record
Temperature  
Mean Temperature 30 °F -  
Max Temperature 46 °F 45 °F 48 °F (2017)
Min Temperature 14 °F 25 °F 21 °F (2016)
Degree Days  
Heating Degree Days 35    
Moisture  
Dew Point 17 °F    
Average Humidity 61    
Maximum Humidity 88    
Minimum Humidity 37    
Precipitation  
Precipitation 0.05 in - - ()
Sea Level Pressure  
Sea Level Pressure 30.19 in    
Wind  
Wind Speed 8 mph (South)    
Max Wind Speed 21 mph    
Max Gust Speed 29 mph    
Visibility 10 miles    
Events      
Averages and records for this station are not official NWS values.
T = Trace of Precipitation, MM = Missing Value Source: NWS Daily Summary

Daily Weather History Graph

Daily Weather History Graph

Search for Another Location

Airport or City:

Trip Planner

Search our weather history database for the weather conditions in past years. The results will help you decide how hot, cold, wet, or windy it might be!

Date:

Astronomy

Jan. 03, 2014 Rise Set
Actual Time 7:36 AM CST 5:20 PM CST
Civil Twilight 7:08 AM CST 5:49 PM CST
Nautical Twilight 6:35 AM CST 6:21 PM CST
Astronomical Twilight 6:04 AM CST 6:52 PM CST
Moon 9:08 AM CST (1/3) 8:25 PM CST (1/3)
Length of Visible Light 10h 40m
Length of Day
9h 43m
Waxing Crescent, 8% of the Moon is Illuminated
Jan 3
Waxing Crescent
Jan 7
First Quarter
Jan 15
Full
Jan 23
Last Quarter
Jan 30
New

Hourly Weather History & Observations

Time (CST) Temp. Windchill Dew Point Humidity Pressure Visibility Wind Dir Wind Speed Gust Speed Precip Events Conditions
12:53 AM 14.0 °F - 10.9 °F 88% 30.48 in 8.0 mi Calm Calm - N/A   Mostly Cloudy
1:53 AM 15.1 °F - 10.9 °F 84% 30.48 in 10.0 mi Calm Calm - N/A   Clear
2:53 AM 16.0 °F 10.4 °F 10.9 °F 81% 30.48 in 10.0 mi South 3.5 mph - N/A   Clear
3:53 AM 15.1 °F 9.4 °F 10.9 °F 84% 30.46 in 10.0 mi SE 3.5 mph - N/A   Clear
4:53 AM 15.1 °F 6.4 °F 10.9 °F 84% 30.42 in 10.0 mi SSE 5.8 mph - N/A   Clear
5:53 AM 17.1 °F 8.7 °F 12.0 °F 81% 30.40 in 10.0 mi South 5.8 mph - N/A   Clear
6:53 AM 16.0 °F 4.4 °F 10.9 °F 81% 30.39 in 10.0 mi South 9.2 mph - N/A   Clear
7:53 AM 17.1 °F 6.6 °F 10.9 °F 77% 30.38 in 9.0 mi South 8.1 mph - N/A   Clear
8:53 AM 19.9 °F 9.3 °F 14.0 °F 78% 30.35 in 9.0 mi SSE 9.2 mph - N/A   Clear
9:53 AM 27.0 °F 15.6 °F 17.1 °F 66% 30.33 in 10.0 mi South 13.8 mph 18.4 mph N/A   Clear
10:53 AM 34.0 °F 24.6 °F 19.9 °F 56% 30.29 in 10.0 mi South 13.8 mph 18.4 mph N/A   Clear
11:53 AM 37.9 °F 30.5 °F 21.9 °F 53% 30.23 in 10.0 mi South 11.5 mph 21.9 mph N/A   Clear
12:53 PM 41.0 °F 32.8 °F 23.0 °F 49% 30.15 in 10.0 mi South 16.1 mph 23.0 mph 0.05 in   Clear
1:53 PM 45.0 °F 37.4 °F 21.9 °F 40% 30.09 in 10.0 mi South 18.4 mph 27.6 mph N/A   Clear
2:53 PM 46.0 °F 39.0 °F 21.0 °F 37% 30.04 in 10.0 mi South 17.3 mph 28.8 mph N/A   Clear
3:53 PM 45.0 °F 36.9 °F 21.0 °F 39% 30.01 in 10.0 mi South 20.7 mph 27.6 mph N/A   Clear
4:53 PM 42.1 °F 33.6 °F 19.9 °F 41% 29.97 in 10.0 mi South 18.4 mph 28.8 mph N/A   Clear
5:53 PM 39.9 °F 32.5 °F 19.9 °F 45% 29.97 in 10.0 mi South 12.7 mph 19.6 mph N/A   Clear
6:53 PM 39.9 °F 32.5 °F 19.9 °F 45% 29.96 in 10.0 mi South 12.7 mph 21.9 mph N/A   Clear
7:53 PM 39.0 °F 31.0 °F 19.9 °F 46% 29.95 in 10.0 mi South 13.8 mph 25.3 mph N/A   Clear
8:53 PM 37.9 °F 29.6 °F 21.0 °F 51% 29.95 in 10.0 mi South 13.8 mph 20.7 mph N/A   Clear
9:53 PM 37.9 °F 29.6 °F 21.9 °F 53% 29.93 in 10.0 mi South 13.8 mph 25.3 mph N/A   Clear
10:53 PM 36.0 °F 27.5 °F 21.9 °F 57% 29.92 in 10.0 mi SSE 12.7 mph - N/A   Clear
11:53 PM 35.1 °F 25.9 °F 21.9 °F 59% 29.89 in 10.0 mi South 13.8 mph - N/A   Clear